Location: *
(44.3526°S, 44.9014°W)
Time: 15:54:06
(UTC+00:00)

Daily predictions for brighter satellites

Satellite Brightness Start Highest point End
(mag) Time Altitude Azimuth Time Altitude Azimuth Time Altitude Azimuth
Cosmos 2221 Rocket 4.0 20:09:07 10° NNE 20:13:24 45° E 20:17:47 10° SSE
Okean 1 Rocket 3.5 20:12:43 10° S 20:17:00 42° ESE 20:21:12 10° NNE
EXPRESS MD2 4.2 20:14:46 10° W 20:18:34 59° SSW 20:25:32 10° ESE
Cosmos 1461 3.6 20:18:37 10° NW 20:22:23 47° SW 20:26:06 10° SSE
Cosmos 468 Rocket 4.1 20:17:35 10° SSW 20:22:42 54° ESE 20:27:49 10° NE
Cosmos 1674 Rocket 3.6 20:19:48 10° N 20:24:12 81° E 20:28:43 10° S
Cosmos 1606 4.0 20:22:06 10° SSW 20:25:06 36° W 20:28:03 10° NNW
ARIANE 5 R/B 3.3 20:21:44 10° SSE 20:26:21 32° E 20:30:56 10° NNE
NOAA 12 4.3 20:21:30 10° SSE 20:26:56 83° WSW 20:32:17 10° NNW
Cosmos 2227 4.4 20:22:03 10° N 20:27:37 57° ENE 20:33:16 10° SSE
Sich 1 Rocket 3.7 20:23:20 10° S 20:27:58 67° E 20:32:32 10° NNE
Cosmos 1818 3.6 20:23:01 10° NW 20:28:25 86° SW 20:33:51 10° SE
In-Cosmos 22 Rocket 4.3 20:24:18 10° N 20:30:09 81° E 20:36:01 10° SSE
Lacrosse 4 Rocket 1.3 20:26:05 10° SSW 20:30:10 61° ESE 20:34:07 10° NE
SJ 16-02 2.5 20:27:14 10° NNE 20:30:37 23° E 20:34:03 10° SE
COSMO-SKYMED 1 3.3 20:27:12 10° N 20:31:26 60° W 20:35:45 10° SSW
Cosmos 2227 Rocket 4.2 20:27:07 10° W 20:31:37 23° SW 20:36:09 10° S
Cosmos 1484 Rocket 3.2 20:28:20 10° S 20:31:54 60° WSW 20:35:27 10° NNW
BREEZE-M DEB (TANK) 3.7 20:23:28 10° WNW 20:32:09 71° SSW 20:34:57 12° ESE
USA 308 3.0 20:31:33 10° SSW 20:33:14 20° SSE 20:34:39 15° ESE
Cosmos 2251 Rocket 3.7 20:29:27 10° NNW 20:34:49 84° WSW 20:40:13 10° SSE
USA 276 2.2 20:33:56 10° NNW 20:35:21 22° NE 20:36:00 17° ENE
Cosmos 1603 4.0 20:29:44 10° SSW 20:35:23 49° ESE 20:40:58 10° NE
Tiangong -1.5 20:34:19 10° WNW 20:37:25 50° N 20:40:11 12° ENE
Cosmos 2026 Rocket 3.9 20:31:22 10° N 20:37:31 84° E 20:43:40 10° S
Cosmos 1340 Rocket 3.0 20:34:00 10° S 20:37:51 45° ESE 20:41:37 10° NNE
SL-8 R/B 4.1 20:33:36 10° NW 20:38:15 51° NNE 20:42:12 14° ESE
Meteor 1-11 4.3 20:40:34 10° N 20:46:21 67° E 20:52:12 10° SSE
Cosmos 1190 Rocket 4.0 20:42:04 10° NNW 20:47:17 86° WSW 20:52:34 10° SSE
Cosmos 841 Rocket 3.8 20:43:05 10° S 20:48:05 43° ESE 20:52:58 10° NE
USA 59 Rocket 2.8 20:40:46 10° SW 20:49:39 31° SSE 20:55:43 16° ESE
NOSS 3-1 (C) 3.9 20:43:20 10° SSW 20:49:45 39° SE 20:54:12 14° ENE
DMSP B5D1-3 4.5 20:47:05 10° NNE 20:52:13 79° ESE 20:57:26 10° SSW
Cosmos 1975 Rocket 3.8 20:49:15 10° NNE 20:53:11 32° E 20:57:07 10° SSE
MOS 1-B Rocket 4.2 20:46:23 10° SSE 20:53:31 83° ENE 20:59:34 10° NNW
Meteor 2-1 Rocket 4.2 20:51:16 10° S 20:57:10 68° ESE 21:02:52 10° NNE
ATLAS 2AS CENTAUR R/B 4.1 20:53:51 10° NE 20:57:38 15° ENE 20:58:22 15° E
Cosmos 1943 3.7 20:52:28 10° SSW 20:58:06 65° WNW 21:03:40 10° N
Cosmos 1954 Rocket 4.0 20:54:02 10° NNW 20:59:13 86° WSW 21:04:30 10° SSE
Cosmos 1553 Rocket 4.0 20:57:05 10° S 21:03:27 70° E 21:09:49 10° NNE
ATLAS CENTAUR R/B 1.7 21:04:28 10° SSW 21:07:07 28° SE 21:07:07 28° SE
Cosmos 1025 Rocket 3.9 21:09:16 10° NNW 21:13:29 51° WSW 21:17:48 10° S
Cosmos 1844 Rocket 2.7 21:08:50 10° NNW 21:14:29 84° WSW 21:20:10 10° SSE
NOSS 3-1 (A) 4.2 21:08:35 10° SSW 21:14:40 31° SSE 21:16:44 25° ESE
Meteor 2-20 Rocket 4.4 21:13:18 10° S 21:19:20 57° ESE 21:25:05 10° NNE
Cosmos 1844 3.7 21:13:40 10° NNW 21:19:24 86° WSW 21:25:15 10° SSE
IRS-P3 4.0 21:15:59 10° SSE 21:21:23 73° ENE 21:26:43 10° N
AQUARIUS 4.3 21:18:54 17° SSE 21:22:07 48° E 21:26:25 10° N
YAOGAN 11 4.2 21:18:22 10° NNE 21:22:51 85° W 21:27:27 10° SSW
ARIANE 6 FM1 Upper Stage 2.8 21:18:40 10° SW 21:23:05 80° NW 21:26:41 14° NNE
SMAP 3.0 21:19:05 10° SSE 21:23:51 78° ENE 21:28:32 10° N
PSLV R/B 4.4 21:26:23 28° NE 21:26:23 28° NE 21:28:59 10° NNE
Cosmos 1741 Rocket 4.2 21:21:37 10° N 21:26:40 47° ENE 21:28:59 29° SE
Cosmos 1812 2.1 21:23:54 10° S 21:27:13 77° E 21:30:29 10° NNE
SKYMED 3 4.2 21:29:17 10° NNE 21:33:14 67° ESE 21:37:16 10° S
Cosmos 2315 Rocket 4.3 21:28:36 10° S 21:34:47 45° ESE 21:40:53 10° NNE
Cosmos 1455 Rocket 3.6 21:32:36 10° SSW 21:36:55 59° W 21:41:10 10° N
USA 267 4.2 21:36:50 25° SE 21:39:17 33° SSE 21:45:01 10° SW
ACS3 Solar Sail 2.7 21:33:35 10° S 21:39:40 50° WSW 21:45:36 10° NW
Cosmos 2084 Rocket 4.0 21:35:47 10° SSW 21:39:26 40° SSE 21:39:26 40° SSE
Cosmos 1833 Rocket 3.5 21:36:52 10° S 21:41:17 31° SE 21:41:17 31° SE
SL-08 ROCKET BODY 4.4 21:38:06 10° N 21:44:08 84° W 21:50:10 10° S
SL-19 R/B 4.4 21:38:58 10° SSE 21:44:53 62° ENE 21:51:01 10° N
SL-08 R/B 3.2 21:40:33 10° NNE 21:45:17 89° W 21:50:01 10° SSW
TIMED 4.4 21:44:53 10° NNW 21:49:10 89° WSW 21:50:07 55° SSE
Cosmos 371 Rocket 3.1 21:49:11 10° N 21:54:00 70° ENE 21:54:21 67° ESE
Landsat 7 3.6 21:59:10 74° ESE 21:59:26 77° ENE 22:04:07 10° N
USA 308 4.5 21:57:15 10° WSW 21:58:07 19° WSW 21:58:07 19° WSW
Cosmos 968 Rocket 3.5 21:55:25 10° NNW 22:00:40 82° WSW 22:02:48 37° SSE
ATLAS 3B R/B 3.8 21:58:02 10° SSW 22:02:14 23° SSE 22:02:14 23° SSE
Cosmos 2266 Rocket 4.2 21:58:05 10° NNW 22:04:30 78° W 22:11:03 10° S
ARIANE 5 R/B 4.1 22:00:44 10° S 22:05:21 34° WSW 22:09:59 10° NW
SJ 16-02 2.8 22:04:37 10° NW 22:08:35 35° WSW 22:10:59 20° S
Cosmos 2228 3.5 22:08:48 10° SSW 22:12:31 56° WSW 22:12:31 56° WSW
Tiangong 0.5 22:11:02 10° W 22:12:21 20° WNW 22:12:21 20° WNW
SL-8 R/B 4.2 22:15:47 10° W 22:19:59 57° SW 22:19:59 57° SW
Spot 4 Rocket 4.4 22:23:56 38° S 22:25:45 62° WSW 22:30:50 10° NNW
Cosmos 304 Rocket 4.3 22:21:42 10° NNW 22:25:59 58° W 22:25:59 58° W
Cosmos 1655 Rocket 4.1 22:27:45 10° NNW 22:34:12 78° W 22:40:41 10° S
NOSS 3-1 (C) 4.1 22:34:40 10° SW 22:40:36 43° WNW 22:41:36 39° NW
USA 59 Rocket 1.7 22:31:22 10° SW 22:41:24 67° SE 22:41:40 67° ESE
BREEZE-M DEB (TANK) 4.5 22:40:56 10° W 22:42:09 26° WSW 22:42:09 26° WSW
Cosmos 2082 Rocket 4.5 22:39:30 10° S 22:40:11 13° S 22:40:11 13° S
ATLAS 2AS CENTAUR R/B 3.0 22:40:26 10° NNW 22:45:51 58° NNW 22:45:51 58° NNW
USA 215 3.8 22:49:27 48° NNW 22:49:27 48° NNW 22:54:09 10° NW
NOSS 3-1 (A) 4.4 22:59:45 10° SW 23:04:08 41° WSW 23:04:08 41° WSW
USA 267 4.4 23:24:11 37° SSW 23:24:11 37° SSW 23:28:03 10° SW
